STARLINK-32303, 61912

Orbit data source: Space-Track

STARLINK-32303, 61912 is a payload satellite owned by SpaceX/Seattle (US) in LEO that was launched on Mon, 11 Nov 2024 UTC via an FALCON 9 launch vehicle from the Air Force Eastern Test Range (AFETR). Payload-class satellites include a variety of spacecraft equipped with specific instruments for various scientific and technological missions. These include communications satellites like Starlink; space stations such as the ISS; scientific satellites like the Hubble; Earth observation satellites from companies like Planet Labs, Umbra, and HawkEye 360; GPS; miniature CubeSats for education and research; and military/defense satellites.

Loading next visibility...
Identifier
61912, 2024-207A
Orbit
LEO
Country
Flag of USUS
Related business
Manufacturer
SpaceX/Seattle
Mission
Operational Commercial Communications
Bus & Motor
STARLINK V2M, Unknown motor
Mass
730 kg wet, ~700 kg dry
Launch date (UTC)
2024-11-11 (2 years ago)
Launch vehicle
FALCON 9
Launch site
Air Force Eastern Test Range (AFETR)
Object type
Payload
Rocket body
Debris
Shape & HBR
Box + 2 Pan, 17.7 m
Radar Cross Section
33.884 m², Large (>1 m²)

Expand to show TLE details & history
Last TLE update: 15 hours ago

TLE from 15 hours ago
0 STARLINK-32303
1 61912U 24207A   26263.02480419  .00009879  00000-0  36798-3 0  9990
2 61912  43.0004 264.1963 0002356 290.8050  69.2549 15.27584252105038
Epoch: 2026-09-20T00:35Z
TLE epoch observation values (Epoch: 2026-09-20T00:35:43.082Z)
Latitude
-0.00005°
Longitude
-103.65818°
Altitude
482.24 km
Speed
7.626 km/s
True Right ascension
17h 36m 47s
True Declination
0° 00' 00"
Sunlit
Object was in daylight at epoch
Visualization orbit readout
Latitude
Unknown
Longitude
Unknown
Altitude
Unknown
Speed
Unknown
Apparent Right ascension
Unknown
Apparent Declination
Unknown
Sunlit
N/A
Visualization observer readout
Local Sidereal Time
08:29:58
Azimuth
Unknown
Elevation
Unknown
Doppler factor
Unknown
Orbital elements
Apogee altitude
486.598 km
Perigee altitude
483.365 km
Semi-major axis
6,863.118 km
Eccentricity
0.00024
Inclination
43.0004°
RAAN
264.1963°
Arg. of periapsis
290.805°
True anomaly
69.28015°
Mean anomaly
69.2549°
Eccentric anomaly
69.26752°
Mean motion
3.81734 °/min
Orbital period
94.31 mins
BSTAR
0.00036798
Loading maneuver chart data...
Computing Atmospheric mass density...
Loading historical data...
Loading historical data...
Loading historical data...
Loading historical data...
Loading historical data...
Loading historical data...
Loading historical data...

Documentation

Showing up to 5 results
|